Hourly Weather Midlothian

Today, 4 July, Saturday

Time Temperature Precipitation Wind Pressure Humidity
00:00 +8°C° 0 mm 3 mps 729 mmHg 94%
01:00 +8°C° 0 mm 2 mps 729 mmHg 93%
02:00 +8°C° 0 mm 2 mps 729 mmHg 93%
03:00 +8°C° 0 mm 2 mps 729 mmHg 92%
04:00 +9°C° 0 mm 2 mps 729 mmHg 91%
05:00 +9°C° 0 mm 2 mps 729 mmHg 90%
06:00 +10°C° 0 mm 2 mps 729 mmHg 89%
07:00 +10°C° 0.1 mm 2 mps 729 mmHg 89%
08:00 +12°C° 0.1 mm 2 mps 729 mmHg 89%
09:00 +12°C° 0.1 mm 1 mps 729 mmHg 89%
10:00 +12°C° 0.3 mm 2 mps 729 mmHg 91%
11:00 +12°C° 0.3 mm 2 mps 729 mmHg 92%
12:00 +12°C° 0.3 mm 2 mps 729 mmHg 94%
13:00 +13°C° 0 mm 2 mps 729 mmHg 92%
14:00 +13°C° 0 mm 3 mps 729 mmHg 90%
15:00 +14°C° 0 mm 3 mps 729 mmHg 87%
16:00 +14°C° 0 mm 3 mps 729 mmHg 88%
17:00 +13°C° 0 mm 3 mps 728 mmHg 89%
18:00 +13°C° 0 mm 3 mps 728 mmHg 89%
19:00 +14°C° 0.3 mm 2 mps 728 mmHg 92%
20:00 +13°C° 0.3 mm 2 mps 727 mmHg 94%
21:00 +13°C° 0.3 mm 2 mps 726 mmHg 96%
22:00 +12°C° 1 mm 3 mps 725 mmHg 96%
23:00 +13°C° 1 mm 4 mps 724 mmHg 96%

Tomorrow, 5 July, Sunday

Time Temperature Precipitation Wind Pressure Humidity
00:00 +13°C° 1 mm 6 mps 723 mmHg 96%
01:00 +13°C° 1.4 mm 6 mps 722 mmHg 94%
02:00 +12°C° 1.4 mm 7 mps 722 mmHg 93%
03:00 +12°C° 1.4 mm 8 mps 721 mmHg 92%
04:00 +12°C° 0 mm 9 mps 722 mmHg 91%
05:00 +11°C° 0 mm 10 mps 722 mmHg 89%
06:00 +9°C° 0 mm 10 mps 723 mmHg 88%
07:00 +9°C° 0 mm 10 mps 723 mmHg 83%
08:00 +11°C° 0 mm 10 mps 724 mmHg 79%
09:00 +11°C° 0 mm 10 mps 725 mmHg 74%
10:00 +11°C° 0.1 mm 10 mps 725 mmHg 72%
11:00 +12°C° 0.1 mm 10 mps 726 mmHg 69%
12:00 +12°C° 0.1 mm 10 mps 726 mmHg 67%
13:00 +12°C° 0.2 mm 9 mps 726 mmHg 69%
14:00 +12°C° 0.2 mm 9 mps 726 mmHg 71%
15:00 +11°C° 0.2 mm 9 mps 726 mmHg 72%
16:00 +11°C° 0.2 mm 8 mps 726 mmHg 76%
17:00 +10°C° 0.2 mm 8 mps 726 mmHg 79%
18:00 +10°C° 0.2 mm 7 mps 726 mmHg 83%
19:00 +9°C° 0.1 mm 6 mps 726 mmHg 85%
20:00 +8°C° 0.1 mm 5 mps 727 mmHg 88%
21:00 +7°C° 0.1 mm 5 mps 727 mmHg 91%
22:00 +7°C° 0 mm 5 mps 727 mmHg 90%
23:00 +7°C° 0 mm 6 mps 728 mmHg 89%

Day after tomorrow, 6 July, Monday

Time Temperature Precipitation Wind Pressure Humidity
00:00 +7°C° 0 mm 6 mps 728 mmHg 88%
01:00 +7°C° 0.1 mm 5 mps 729 mmHg 89%
02:00 +7°C° 0.1 mm 5 mps 729 mmHg 91%
03:00 +7°C° 0.1 mm 4 mps 729 mmHg 92%
04:00 +7°C° 0.1 mm 4 mps 730 mmHg 91%
05:00 +8°C° 0.1 mm 4 mps 731 mmHg 90%
06:00 +8°C° 0.1 mm 5 mps 732 mmHg 89%
07:00 +9°C° 0 mm 5 mps 733 mmHg 84%
08:00 +10°C° 0 mm 5 mps 734 mmHg 79%
09:00 +11°C° 0 mm 6 mps 735 mmHg 74%
10:00 +13°C° 0.1 mm 5 mps 736 mmHg 71%
11:00 +14°C° 0.1 mm 5 mps 737 mmHg 67%
12:00 +14°C° 0.1 mm 5 mps 738 mmHg 64%
13:00 +14°C° 0.1 mm 5 mps 738 mmHg 64%
14:00 +15°C° 0.1 mm 4 mps 739 mmHg 64%
15:00 +15°C° 0.1 mm 4 mps 740 mmHg 65%
16:00 +14°C° 0.1 mm 4 mps 740 mmHg 67%
17:00 +14°C° 0.1 mm 4 mps 740 mmHg 68%
18:00 +13°C° 0.1 mm 5 mps 740 mmHg 70%
19:00 +12°C° 0 mm 5 mps 741 mmHg 73%
20:00 +9°C° 0 mm 5 mps 741 mmHg 75%
21:00 +8°C° 0 mm 5 mps 741 mmHg 78%
22:00 +7°C° 0 mm 5 mps 741 mmHg 81%
23:00 +7°C° 0 mm 5 mps 741 mmHg 83%

7 July, Tuesday

Time Temperature Precipitation Wind Pressure Humidity
00:00 +5°C° 0 mm 6 mps 741 mmHg 86%
01:00 +5°C° 0 mm 6 mps 740 mmHg 88%
02:00 +6°C° 0 mm 5 mps 740 mmHg 90%
03:00 +7°C° 0 mm 5 mps 740 mmHg 91%
04:00 +7°C° 0 mm 5 mps 740 mmHg 88%
05:00 +7°C° 0 mm 5 mps 740 mmHg 84%
06:00 +8°C° 0 mm 5 mps 740 mmHg 80%
07:00 +9°C° 0 mm 5 mps 740 mmHg 77%
08:00 +10°C° 0 mm 5 mps 740 mmHg 75%
09:00 +12°C° 0 mm 5 mps 741 mmHg 72%
10:00 +12°C° 0.1 mm 5 mps 741 mmHg 70%
11:00 +13°C° 0.1 mm 5 mps 741 mmHg 69%
12:00 +13°C° 0.1 mm 4 mps 741 mmHg 67%
13:00 +14°C° 0 mm 4 mps 741 mmHg 67%
14:00 +14°C° 0 mm 4 mps 741 mmHg 66%
15:00 +14°C° 0 mm 4 mps 741 mmHg 65%
16:00 +13°C° 0.1 mm 4 mps 740 mmHg 70%
17:00 +13°C° 0.1 mm 4 mps 740 mmHg 75%
18:00 +12°C° 0.1 mm 4 mps 740 mmHg 80%
19:00 +11°C° 0.2 mm 4 mps 739 mmHg 85%
20:00 +10°C° 0.2 mm 3 mps 739 mmHg 89%
21:00 +9°C° 0.2 mm 3 mps 738 mmHg 93%
22:00 +9°C° 0.1 mm 3 mps 738 mmHg 93%
23:00 +8°C° 0.1 mm 4 mps 737 mmHg 94%

8 July, Wednesday

Time Temperature Precipitation Wind Pressure Humidity
00:00 +8°C° 0.1 mm 4 mps 736 mmHg 95%
01:00 +10°C° 1 mm 4 mps 735 mmHg 95%
02:00 +11°C° 1 mm 4 mps 734 mmHg 96%
03:00 +12°C° 1 mm 5 mps 733 mmHg 96%
04:00 +12°C° 1.6 mm 5 mps 733 mmHg 96%
05:00 +13°C° 1.6 mm 6 mps 732 mmHg 95%
06:00 +12°C° 1.6 mm 7 mps 732 mmHg 95%
07:00 +13°C° 0.2 mm 8 mps 731 mmHg 93%
08:00 +13°C° 0.2 mm 8 mps 731 mmHg 91%
09:00 +13°C° 0.2 mm 9 mps 731 mmHg 89%
10:00 +13°C° 0 mm 9 mps 731 mmHg 84%
11:00 +12°C° 0 mm 10 mps 730 mmHg 80%
12:00 +12°C° 0 mm 11 mps 730 mmHg 76%
13:00 +12°C° 0 mm 12 mps 730 mmHg 76%
14:00 +12°C° 0 mm 12 mps 730 mmHg 76%
15:00 +12°C° 0 mm 12 mps 730 mmHg 76%
16:00 +10°C° 0 mm 12 mps 730 mmHg 76%
17:00 +11°C° 0 mm 11 mps 731 mmHg 75%
18:00 +11°C° 0 mm 11 mps 731 mmHg 75%
19:00 +11°C° 0 mm 10 mps 732 mmHg 75%
20:00 +10°C° 0 mm 9 mps 733 mmHg 74%
21:00 +10°C° 0 mm 8 mps 734 mmHg 74%
22:00 +9°C° 0 mm 8 mps 734 mmHg 76%
23:00 +8°C° 0 mm 7 mps 735 mmHg 78%

9 July, Thursday

Time Temperature Precipitation Wind Pressure Humidity
00:00 +6°C° 0 mm 7 mps 736 mmHg 80%
01:00 +7°C° 0 mm 6 mps 737 mmHg 81%
02:00 +6°C° 0 mm 5 mps 737 mmHg 83%
03:00 +6°C° 0 mm 5 mps 738 mmHg 85%
04:00 +6°C° 0 mm 4 mps 738 mmHg 83%
05:00 +7°C° 0 mm 4 mps 739 mmHg 81%
06:00 +7°C° 0 mm 4 mps 739 mmHg 80%
07:00 +8°C° 0 mm 4 mps 739 mmHg 74%
08:00 +11°C° 0 mm 4 mps 740 mmHg 68%
09:00 +12°C° 0 mm 4 mps 740 mmHg 63%
10:00 +13°C° 0 mm 4 mps 740 mmHg 62%
11:00 +13°C° 0 mm 4 mps 740 mmHg 61%
12:00 +14°C° 0 mm 3 mps 741 mmHg 60%
13:00 +14°C° 0.1 mm 4 mps 740 mmHg 62%
14:00 +14°C° 0.1 mm 4 mps 740 mmHg 64%
15:00 +14°C° 0.1 mm 4 mps 740 mmHg 65%
16:00 +14°C° 0.1 mm 4 mps 740 mmHg 68%
17:00 +14°C° 0.1 mm 4 mps 740 mmHg 71%
18:00 +13°C° 0.1 mm 4 mps 740 mmHg 73%
19:00 +12°C° 0 mm 4 mps 740 mmHg 77%
20:00 +10°C° 0 mm 4 mps 740 mmHg 81%
21:00 +8°C° 0 mm 4 mps 740 mmHg 84%
22:00 +7°C° 0 mm 4 mps 739 mmHg 86%
23:00 +6°C° 0 mm 4 mps 739 mmHg 88%
Show more